Weather History for HEAR - April, 2013

Change the Weather History Date:

Tuesday, April 2, 2013

  Actual Average Record
Temperature  
Mean Temperature 64 °F -  
Max Temperature 75 °F 78 °F - ()
Min Temperature 51 °F 54 °F - ()
Degree Days  
Heating Degree Days 1    
Growing Degree Days 14 (Base 50)    
Moisture  
Dew Point 54 °F    
Average Humidity 74    
Maximum Humidity 100    
Minimum Humidity 24    
Precipitation  
Precipitation 0.00 in 0.01 in - ()
Sea Level Pressure  
Sea Level Pressure 29.99 in    
Wind  
Wind Speed 4 mph ()    
Max Wind Speed 13 mph    
Max Gust Speed -    
Visibility 5.7 miles    
Events      
T = Trace of Precipitation, MM = Missing Value Source: Averaged Metar Reports

Daily Weather History Graph

Daily Weather History Graph

Search for Another Location

Airport or City:

Trip Planner

Search our weather history database for the weather conditions in past years. The results will help you decide how hot, cold, wet, or windy it might be!

Date:

Astronomy

Apr. 02, 2013 Rise Set
Actual Time 5:32 AM EET 6:04 PM EET
Civil Twilight 5:08 AM EET 6:28 PM EET
Nautical Twilight 4:39 AM EET 6:57 PM EET
Astronomical Twilight 4:10 AM EET 7:26 PM EET
Moon No Moon Rise 10:16 AM EET (4/2)
Length of Visible Light 13h 20m
Length of Day
12h 32m
Waning Gibbous, 59% of the Moon is Illuminated
Apr 2
Waning Gibbous
Apr 3
Last Quarter
Apr 10
New
Apr 18
First Quarter
Apr 25
Full

Hourly Weather History & Observations

Time (EET) Temp. Dew Point Humidity Pressure Visibility Wind Dir Wind Speed Gust Speed Precip Events Conditions
12:00 AM 57.2 °F 57.2 °F 100% 30.01 in - Calm Calm - N/A   Clear
1:00 AM 57.2 °F 57.2 °F 100% 30.01 in - SSE 4.6 mph - N/A   Clear
3:00 AM 57.2 °F 57.2 °F 100% 29.98 in - SSE 6.9 mph - N/A   Clear
4:00 AM 55.4 °F 55.4 °F 100% 29.98 in - SSE 5.8 mph - N/A   Clear
5:00 AM 55.4 °F 55.4 °F 100% 29.98 in - South 4.6 mph - N/A   Clear
6:00 AM 55.4 °F 55.4 °F 100% 29.98 in 6.2 mi SSE 4.6 mph - N/A   Scattered Clouds
7:00 AM 59.0 °F 59.0 °F 100% 30.01 in 6.2 mi South 1.2 mph - N/A   Scattered Clouds
8:00 AM 66 °F 56 °F 63% 30.02 in 4 mi South 3.5 mph - -   Mist
8:00 AM 66.2 °F 57.2 °F 73% 30.01 in 3.7 mi South 3.5 mph - N/A   Scattered Clouds
9:00 AM 68.0 °F 55.4 °F 64% 30.01 in 6.2 mi SSW 2.3 mph - N/A   Scattered Clouds
10:00 AM 71.6 °F 51.8 °F 50% 29.98 in - West 3.5 mph - N/A   Clear
11:00 AM 80.6 °F 41.0 °F 24% 29.98 in 6.2 mi West 5.8 mph - N/A   Scattered Clouds
12:00 PM 75.2 °F 51.8 °F 44% 29.98 in 6.2 mi NW 8.1 mph - N/A   Scattered Clouds
1:00 PM 73.4 °F 51.8 °F 47% 29.95 in 6.2 mi NNW 11.5 mph - N/A   Scattered Clouds
2:00 PM 72 °F 43 °F 24% 30.19 in 6 mi NNW 12.7 mph - -  
2:00 PM 71.6 °F 42.8 °F 35% 29.95 in - NNW 12.7 mph - N/A   Clear
3:00 PM 71.6 °F 48.2 °F 43% 29.95 in - NNW 9.2 mph - N/A   Clear
4:00 PM 69.8 °F 55.4 °F 60% 29.95 in - North 9.2 mph - N/A   Clear
5:00 PM 68.0 °F 55.4 °F 64% 29.95 in - North 8.1 mph - N/A   Clear
6:00 PM 64.4 °F 57.2 °F 77% 29.95 in - North 5.8 mph - N/A   Clear
7:00 PM 60.8 °F 57.2 °F 88% 29.98 in - North 2.3 mph - N/A   Clear
8:00 PM 59 °F 55 °F 82% 29.98 in 6 mi North 2.3 mph - -  
8:00 PM 59.0 °F 55.4 °F 88% 29.98 in - North 2.3 mph - N/A   Clear
9:00 PM 55.4 °F 55.4 °F 100% 29.98 in - SSE 3.5 mph - N/A   Clear
10:00 PM 53.6 °F 53.6 °F 100% 29.98 in - SSW 2.3 mph - N/A   Clear
11:00 PM 51.8 °F 51.8 °F 100% 29.98 in - SSE 2.3 mph - N/A   Clear